Regional Weather Roundup
Issued by NWS

Home | Current Version | Previous Version | Text Only | Print | Product List | Glossary On
Versions: 1 2 3 4 5 6 7 8 9 10 11 12 13 14 15 16 17 18 19 20 21 22 23 24 25 26 27 28 29 30 31 32 33 34 35 36 37 38 39 40 41 42 43 44 45 46 47 48 49 50
000
ASUS46 KLOX 230612
RWRCA

SOUTHERN CALIFORNIA WEATHER ROUNDUP
NATIONAL WEATHER SERVICE OXNARD CALIFORNIA
1100 PM PDT FRI AUG 22 2014

NOTE: "FAIR" INDICATES FEW OR NO CLOUDS BELOW 12,000 FEET WITH NO
SIGNIFICANT WEATHER AND/OR OBSTRUCTIONS TO VISIBILITY.

  -  STATIONS PRECEEDED BY AN ASTERISK (*) ARE NOT NWS OR FAA
     STATIONS AND ARE NOT SUBJECT TO NWS AND FAA QUALITY CONTROL.

CAZ041-042-087-230700-
LA AND ORANGE COUNTY COASTAL AREAS


CITY           SKY/WX    TMP DP  RH WIND       PRES   REMARKS
L.A. DOWNTOWN  CLOUDY    69  62  78 W3        29.95S
L.A. AIRPORT   MOCLDY    69  63  81 NW7       29.96S
LONG BEACH     MOCLDY    68  63  83 W5        29.95S

CITY           SKY/WX    TMP DP  RH WIND       PRES   REMARKS
AVALON           N/A     66 N/A N/A CALM        N/A
FULLERTON      CLOUDY    70  63  78 SE5       29.95R
*GETTY CENTER    N/A     61  61 100 N1          N/A
HAWTHORNE      MOCLDY    69  63  81 W3        29.96R
*LEO CARRILLO    N/A     66  63  90 N2          N/A
*LOS ALAMITOS  MOCLDY    68  63  83 W2        29.96R
*REDONDO BEACH   N/A     67  61  81 CALM      29.95S
SANTA ANA      MOCLDY    70  62  76 CALM      29.96S
STA MONICA APT CLEAR     67  61  81 W3        29.96S
*UCLA            N/A     64  61  88 W2        29.93S

$$

CAZ547-548-048-230700-
LA COUNTY VALLEYS AND INLAND EMPIRE


CITY           SKY/WX    TMP DP  RH WIND       PRES   REMARKS
BURBANK        CLEAR     67  62  84 S3        29.96S
VAN NUYS       CLEAR     67  61  81 SE5       29.96R

CITY           SKY/WX    TMP DP  RH WIND       PRES   REMARKS
CORONA AIRPORT CLEAR     67  63  87 W5        29.97R
*CHATSWORTH      N/A     69  62  79 CALM      29.91S
CHINO          CLEAR     66  61  84 W3        29.98R
*CLAREMONT       N/A     64  56  75 N2          N/A
MARCH AFB      CLEAR     69  55  62 NW5       29.99S
*NORTHRIDGE      N/A     68  59  73 E1          N/A
ONTARIO        CLEAR     70  62  76 SW5       29.96S
*PASADENA        N/A     68  64  88 CALM        N/A
RIVERSIDE      CLEAR     69  62  78 W5        29.97R
SAN BERNARDINO NOT AVBL
*SAN GABRIEL     N/A     69  62  79 CALM      29.92S
*SAN RAFAEL HI   N/A     63  63 100 CALM        N/A
*SAUGUS          N/A     67  59  74 W3G16       N/A
*WHITEMAN AP   NOT AVBL
*WOODLAND HILL   N/A     66  61  82 NE1         N/A

$$

CAZ054-055-230700-
LA AND SAN BERNARDINO COUNTY MOUNTAINS


CITY           SKY/WX    TMP DP  RH WIND       PRES   REMARKS
*ACTON           N/A     70  47  43 S7          N/A
*BIG BEAR AIRP CLEAR     54  36  50 W6        30.22S
*BIG PINES       N/A     56  27  32 SW2         N/A
MT WILSON NWS    N/A     59  16  18 MISG        N/A
SANDBERG       CLEAR     64  53  67 S13       30.10F
*WARM SPRINGS    N/A     62  52  70 SW3         N/A

$$

CAZ028-029-059-060-099-230700-
ANTELOPE VALLEY AND SURROUNDING AREAS


CITY           SKY/WX    TMP DP  RH WIND       PRES   REMARKS
LANCASTER      CLEAR     73  40  30 SW16      29.97R
PALMDALE       CLEAR     73  42  32 SW14      29.97S
*POPPY PARK      N/A     71  50  47 SW16        N/A

CITY           SKY/WX    TMP DP  RH WIND       PRES   REMARKS
29 PALMS       CLEAR     82  42  24 SW20      29.96R
BARSTOW/DAGGET CLEAR     83  44  25 SW23      29.87S
BISHOP         CLEAR     73  36  25 N13       29.95R
CHINA LAKE     CLEAR     82  41  23 S7        29.83R
EDWARDS AFB    CLEAR     73  41  31 SW16      29.93R
MOJAVE         FAIR      75  46  35 W16       29.97R
NEEDLES        CLEAR     88  53  30 S6        29.83S
VICTORVILLE    CLEAR     73  36  25 SW9       29.98S

$$

CAZ039-040-230700-
VENTURA AND SANTA BARBARA COUNTY COAST


CITY           SKY/WX    TMP DP  RH WIND       PRES   REMARKS
CAMARILLO      CLOUDY    66  61  84 W3        29.96S
NWS OXNARD       N/A     64  60  87 W1        29.96S
OXNARD AIRPORT CLOUDY    64  60  87 NW5       29.96S
*POINT MUGU    CLOUDY    68  61  78 NW5       29.96S
SBA APT/GOLETA CLOUDY    65  60  84 SW3       29.95S
*SANTA BARBARA   N/A     66  60  79 CALM      30.03S
*VENTURA         N/A     64  61  91 CALM      29.99S

$$

CAZ044-045-230700-
VENTURA COUNTY VALLEYS


CITY           SKY/WX    TMP DP  RH WIND       PRES   REMARKS
*SIMI VALLEY     N/A     64  60  90 CALM      29.91S
*OJAI            N/A     63  59  87 CALM      29.89S
*FILLMORE        N/A     64  61  89 CALM      29.86F

$$

CAZ053-230700-
VENTURA COUNTY MOUNTAINS


CITY           SKY/WX    TMP DP  RH WIND       PRES   REMARKS
*LOCKWOOD VLY    N/A     55  45  67 MISG        N/A
*ROSE VALLEY     N/A     59  52  77 MISG        N/A

$$

CAZ034-035-036-230700-
CENTRAL COAST AND SANTA YNEZ VALLEY


CITY           SKY/WX    TMP DP  RH WIND       PRES   REMARKS
SAN LUIS OBISP MOCLDY    60  57  89 CALM      29.96S
SANTA MARIA    CLOUDY    63  58  83 CALM      29.97S

CITY           SKY/WX    TMP DP  RH WIND       PRES   REMARKS
*CAL POLY SLO    N/A     59  57  94 S3G9        N/A
*CAMBRIA         N/A     59  57  94 E1        29.85S
*LOMPOC        CLOUDY    61  55  82 W5        29.97S
*PISMO BEACH     N/A     62  59  90 SW2       29.96F
*SANTA YNEZ    FAIR      61  55  82 SW3       29.96S

$$

CAZ037-038-051-230700-
SAN LUIS OBISPO COUNTY INTERIOR AND CUYAMA VALLEY


CITY           SKY/WX    TMP DP  RH WIND       PRES   REMARKS
*CUYAMA          N/A     69  52  55 W8        29.86S
PASO ROBLES    CLEAR     65  55  70 W8        29.94R

$$

CAZ032-033-061-230700-
SOUTHERN DESERTS


CITY           SKY/WX    TMP DP  RH WIND       PRES   REMARKS
BLYTHE         CLEAR     87  62  43 S10       29.83R
IMPERIAL       CLEAR     78  51  38 W8        29.81S
PALM SPRINGS   CLEAR     88  34  14 NW10      29.85S
THERMAL        CLEAR     87  38  17 NW8       29.79S

$$

ELSEWHERE ACROSS THE WESTERN UNITED STATES AND MEXICO


CITY           SKY/WX    TMP DP  RH WIND       PRES   REMARKS
DENVER, CO     MOCLDY    60  57  89 S6        30.05F
GRAND CANYON,    N/A    N/A N/A N/A MISG        N/A
HONOLULU, HI   MOCLDY    81  64  57 E10G20    29.98R
KAHULUI, MAUI  CLEAR     77  68  73 NE9       29.99R
LAKE TAHOE, CA CLEAR     54  39  57 CALM      30.17R
LAS VEGAS, NV  CLEAR     83  49  30 S22G30    29.80S
MAMMOTH LAKES, FAIR      57  37  47 W13G18    30.19R
MEXICO CITY, M MOCLDY    61  52  72 CALM      30.35F
PHOENIX, AZ    CLEAR     84  62  47 CALM      29.88R
PORTLAND, OR   CLEAR     67  55  65 NW3       30.06R
RENO, NV       CLEAR     69  37  30 VRB3      30.05R
SALT LAKE CITY CLOUDY    59  56  89 SE3       30.01S
SAN DIEGO, CA  PTCLDY    70  63  78 N3        29.97S
SAN FRANCISCO, PTCLDY    62  56  80 SW5       29.93F
SAN JOSE, CA   PTCLDY    62  56  80 CALM      29.93F
SEATTLE, WA    CLEAR     63  55  75 NW3       30.11R
TIJUANA, MEX   CLEAR     66  61  82 CALM      29.98S

$$

STATION/POSITION TIME  TEMP    WIND        PRES    VSBY  WAVE
                       AIR SEA DIR/SP/G                  HT/PER
                 (UTC) (F)     (DEG/KT/KT) (MB)    (MI)  (FT/S)
POINT ARGUELLO B NOT AVBL
WEST SANTA BARBA 0600   62 63  300/ 12/ 14 1013.3F         4/13
POINT CONCEPTION NOT AVBL
EAST SANTA BARBA 0500          260/ 12       N/A
SANTA MONICA BAY 0600   67 72  320/  8/ 12 1013.8F         4/11


USA.gov is the U.S. government's official web portal to all federal, state and local government web resources and services.